Terug naar catalogus

STARLINK-5767

ActiefCommunicatieVLEO
NORAD 55586·PAYLOAD·🇺🇸 United States

Gelanceerd Feb 12, 2023 vanaf Cape Canaveral Space Force Station

Loading…

Volgende Passages (komende 24 uur)

TLE

VersSource: CelesTrak SupGP

Epoch: Sep 15, 2026, 02:03 UTC

1 55586C 23020T   26258.08590278 -.00034908  00000+0 -12645-2 0  2581
2 55586  43.0029  15.8096 0002288 268.1226 175.8282 15.27589634    19

Volg STARLINK-5767 in realtime met AllMySat

Download on the App Store